TimeCDT,TemperatureF,Dew PointF,Humidity,Sea Level PressureIn,VisibilityMPH,Wind Direction,Wind SpeedMPH,Gust SpeedMPH,PrecipitationIn,Events,Conditions,WindDirDegrees,DateUTC
12:45 AM,64.9,62.1,90,29.88,3.0,West,9.2,-,0.11,Rain-Thunderstorm,Light Rain,280,2013-06-09 05:45:00
12:53 AM,64.9,62.1,90,29.86,4.0,West,5.8,-,0.12,Rain-Thunderstorm,Rain,280,2013-06-09 05:53:00
1:02 AM,64.9,62.1,90,29.86,4.0,NNW,3.5,-,0.02,Rain,Rain,340,2013-06-09 06:02:00
1:10 AM,64.9,62.1,90,29.85,6.0,North,3.5,-,0.04,Rain,Light Rain,10,2013-06-09 06:10:00
1:53 AM,64.0,63.0,96,29.81,10.0,SE,6.9,-,0.04,Rain,Light Rain,130,2013-06-09 06:53:00
2:42 AM,64.9,62.1,90,29.83,10.0,ESE,4.6,-,0.01,,Overcast,120,2013-06-09 07:42:00
2:53 AM,64.9,62.1,90,29.81,10.0,ESE,5.8,-,0.01,,Overcast,120,2013-06-09 07:53:00
3:53 AM,66.0,63.0,90,29.79,10.0,Calm,Calm,-,N/A,,Overcast,0,2013-06-09 08:53:00
4:53 AM,64.0,61.0,90,29.79,10.0,SSW,6.9,-,N/A,,Clear,200,2013-06-09 09:53:00
5:36 AM,64.9,61.0,87,29.83,10.0,SSW,6.9,-,N/A,,Mostly Cloudy,200,2013-06-09 10:36:00
5:53 AM,64.9,61.0,87,29.81,10.0,SSW,5.8,-,N/A,,Overcast,210,2013-06-09 10:53:00
6:53 AM,64.0,60.1,87,29.83,10.0,WSW,6.9,-,N/A,,Mostly Cloudy,240,2013-06-09 11:53:00
7:07 AM,64.0,60.1,87,29.85,10.0,WSW,3.5,-,N/A,,Scattered Clouds,240,2013-06-09 12:07:00
7:53 AM,64.9,60.1,84,29.83,10.0,SW,6.9,-,N/A,,Clear,230,2013-06-09 12:53:00
8:53 AM,66.9,59.0,76,29.84,10.0,West,9.2,-,N/A,,Clear,260,2013-06-09 13:53:00
9:53 AM,72.0,59.0,64,29.83,10.0,West,10.4,-,N/A,,Clear,270,2013-06-09 14:53:00
10:53 AM,75.0,57.9,55,29.82,10.0,WNW,13.8,20.7,N/A,,Clear,300,2013-06-09 15:53:00
11:53 AM,78.1,53.1,42,29.81,10.0,West,15.0,26.5,N/A,,Clear,280,2013-06-09 16:53:00
12:53 PM,80.1,53.1,39,29.81,10.0,NW,15.0,-,N/A,,Clear,310,2013-06-09 17:53:00
1:53 PM,82.0,53.1,37,29.81,10.0,West,15.0,21.9,N/A,,Partly Cloudy,280,2013-06-09 18:53:00
2:53 PM,80.1,48.9,34,29.79,10.0,WNW,15.0,26.5,N/A,,Scattered Clouds,290,2013-06-09 19:53:00
3:53 PM,82.9,48.9,31,29.78,10.0,West,12.7,31.1,N/A,,Clear,280,2013-06-09 20:53:00
4:53 PM,84.0,50.0,31,29.77,10.0,NW,13.8,20.7,N/A,,Clear,310,2013-06-09 21:53:00
5:53 PM,82.9,50.0,32,29.76,10.0,WNW,12.7,23.0,N/A,,Clear,290,2013-06-09 22:53:00
6:53 PM,82.0,50.0,33,29.76,10.0,WNW,13.8,21.9,N/A,,Clear,300,2013-06-09 23:53:00
7:53 PM,79.0,52.0,39,29.77,10.0,WNW,5.8,-,N/A,,Clear,300,2013-06-10 00:53:00
8:53 PM,72.0,59.0,64,29.79,10.0,NNE,5.8,-,N/A,,Clear,30,2013-06-10 01:53:00
9:53 PM,70.0,60.1,71,29.81,10.0,East,3.5,-,N/A,,Clear,90,2013-06-10 02:53:00
10:53 PM,66.0,61.0,84,29.84,10.0,Calm,Calm,-,N/A,,Clear,0,2013-06-10 03:53:00
11:53 PM,64.0,61.0,90,29.85,10.0,Calm,Calm,-,N/A,,Clear,0,2013-06-10 04:53:00